[Date Prev][Date Next][Thread Prev][Thread Next] - [Date Index][Thread Index][Author Index]
2 Line ISS Keps 11-25
- Subject: [sarex] 2 Line ISS Keps 11-25
- From: "Dave Larsen PhD" <doc@xxxxxxxxxxx>
- Date: Sun, 25 Nov 2001 02:52:11 -0800
ISS
1 25544U 98067A 01329.17664791 .00055996 00000-0 62458-3 0 7570
2 25544 51.6406 358.9445 0010362 15.3543 92.1946 15.62183815172208
----
Via the sarex mailing list at AMSAT.ORG courtesy of AMSAT-NA.
To unsubscribe, send "unsubscribe sarex" to Majordomo@amsat.org
AMSAT Home